Location: LDNL
(36.4545°S, 141.6685°E)
Time: 12:34:57
(UTC+10:00)

Explorer 7 - Pass Details

Date: 17 August 2022
Orbit: 482 x 668 km, 50.3° (Epoch: 26 September)

Event Time Altitude Azimuth Distance (km) Brightness Sun altitude
Rises 16:07:59 0° 318° (NW) 2,987 12.0 19.7°
Reaches altitude 10° 16:10:19 10° 320° (NW) 2,090 11.6 19.3°
Maximum altitude 16:15:08 68° 42° (NE) 727 7.7 18.5°
Drops below altitude 10° 16:20:00 10° 124° (SE) 2,101 9.2 17.7°
Sets 16:22:21 0° 126° (SE) 3,004 9.9 17.3°
